This is the latest recevied weather packets stored in our database for station/object F4IVW-13. If no packets are shown the sender has not sent any weather packets the latest 1 day(s).
| Time | Temp. | Humidity | Pressure | Rain* | Wind** | Luminosity | Snow |
|---|---|---|---|---|---|---|---|
| 1778074798 | 16.11° C | 99% | 1014 hPa | 0 mm | - | 9 W/m² | - |
| 1778074471 | 16.67° C | 99% | 1013.9 hPa | 0 mm | - | 18 W/m² | - |
| 1778073846 | 15° C | 99% | 1013.9 hPa | 0 mm | - | 83 W/m² | - |
| 1778073520 | 15° C | 99% | 1013.8 hPa | 0 mm | - | 56 W/m² | - |
| 1778073203 | 15° C | 99% | 1013.8 hPa | 0 mm | - | 44 W/m² | - |
| 1778072886 | 14.44° C | 99% | 1013.8 hPa | 0 mm | - | 42 W/m² | - |
| 1778071943 | 13.33° C | 99% | 1013.9 hPa | 0 mm | - | 54 W/m² | - |
| 1778071615 | 12.78° C | 99% | 1014 hPa | 0 mm | - | 13 W/m² | - |
| 1778070984 | 12.78° C | 99% | 1013.9 hPa | 0.51 mm | - | 6 W/m² | - |
| 1778069397 | 13.33° C | 99% | 1013.5 hPa | 0 mm | - | 40 W/m² | - |
| 1778069071 | 13.33° C | 99% | 1013.6 hPa | 0 mm | - | 59 W/m² | - |
| 1778068437 | 12.78° C | 99% | 1013.7 hPa | 0 mm | - | 30 W/m² | - |
| 1778068120 | 12.78° C | 99% | 1013.8 hPa | 0 mm | - | 6 W/m² | - |
| 1778067802 | 12.78° C | 99% | 1013.7 hPa | 1.78 mm | - | 4 W/m² | - |
| 1778067494 | 12.22° C | 99% | 1013.7 hPa | 1.78 mm | - | 2 W/m² | - |
| 1778067168 | 12.78° C | 99% | 1013.8 hPa | 1.52 mm | - | 0 W/m² | - |
| 1778066857 | 12.78° C | 99% | 1013.7 hPa | 1.27 mm | - | 0 W/m² | - |
| 1778066215 | 13.89° C | 99% | 1013.8 hPa | 0.25 mm | - | 0 W/m² | - |
| 1778065582 | 15° C | 99% | 1013.5 hPa | 0 mm | - | 2 W/m² | - |
| 1778065270 | 15° C | 99% | 1013.5 hPa | 0 mm | - | 8 W/m² | - |
| 1778064944 | 15.56° C | 99% | 1013.6 hPa | 0 mm | - | 16 W/m² | - |
| 1778064307 | 15.56° C | 99% | 1013.7 hPa | 1.27 mm | - | 26 W/m² | - |
| 1778063036 | 12.22° C | 99% | 1013.8 hPa | 1.27 mm | - | 37 W/m² | - |
| 1778062719 | 12.22° C | 99% | 1013.8 hPa | 1.27 mm | - | 33 W/m² | - |
| 1778062402 | 12.22° C | 99% | 1013.8 hPa | 1.27 mm | - | 6 W/m² | - |
* Rain latest hour (hover to see other rain measurements)
** Current wind speed in m/s (hover to see current wind gust speed)